Location: Unspecified
(52.4292°N, 19.3359°E)
Time: 22:51:15
(UTC+02:00)

A-11 Canister half - Pass Details

Date: 28 May 2024
Orbit: 1515 x 1685 km, 47.2° (Epoch: 19 June)

Event Time Altitude Azimuth Distance (km) Brightness Sun altitude
Rises 04:58:11 0° 270° (W) 4,745 11.0 2.7°
Reaches altitude 10° 05:01:19 10° 267° (W) 3,741 10.5 3.1°
Maximum altitude 05:10:31 62° 190° (S) 1,687 9.2 4.3°
Drops below altitude 10° 05:19:33 10° 113° (ESE) 3,673 11.6 5.5°
Sets 05:22:36 0° 110° (ESE) 4,655 12.2 5.9°
